SEH4AK LGAV-LGKO

Flight info

Callsign SEH4AK
Flight time 0h 42m
Altitude 17000
Route KEA L995 KOPAR
Aircraft AT76/M-SDFGIRY/S

Departure

Time 2026-05-08 14:04
Airport Athens Eleftherios Venizelos International Airport (LGAV)

Arrival

Time 2026-05-08 14:46
Airport Kos International Airport "Ippokratis" (LGKO)
Time Latitude Longitude Altitude Speed Heading
2026-05-08 13:48 37.94187 23.95260 277 ft 0 kts 219°
2026-05-08 13:49 37.94183 23.95255 281 ft 0 kts 217°
2026-05-08 13:59 37.94184 23.95256 281 ft 0 kts 220°
2026-05-08 13:59 37.94169 23.95240 280 ft 1 kts 175°
2026-05-08 13:59 37.94171 23.95251 281 ft 4 kts 66°
2026-05-08 14:00 37.94201 23.95312 282 ft 1 kts 114°
2026-05-08 14:00 37.94176 23.95377 285 ft 16 kts 116°
2026-05-08 14:01 37.94099 23.95543 293 ft 26 kts 120°
2026-05-08 14:01 37.94144 23.95746 298 ft 33 kts 37°
2026-05-08 14:01 37.94357 23.95951 302 ft 43 kts 36°
2026-05-08 14:01 37.94577 23.96160 301 ft 34 kts 37°
2026-05-08 14:02 37.94750 23.96336 302 ft 30 kts 38°
2026-05-08 14:02 37.94907 23.96490 306 ft 27 kts 37°
2026-05-08 14:02 37.95052 23.96628 310 ft 25 kts 37°
2026-05-08 14:02 37.95189 23.96761 310 ft 25 kts 37°
2026-05-08 14:03 37.95331 23.96877 310 ft 24 kts 37°
2026-05-08 14:03 37.95362 23.97011 310 ft 19 kts 162°
2026-05-08 14:03 37.95127 23.96936 313 ft 62 kts 213°
2026-05-08 14:03 37.94630 23.96476 303 ft 114 kts 216°
2026-05-08 14:04 37.93919 23.95865 549 ft 131 kts 212°
2026-05-08 14:04 37.93139 23.95152 1030 ft 143 kts 212°
2026-05-08 14:04 37.92276 23.94515 1531 ft 149 kts 208°
2026-05-08 14:04 37.91338 23.93886 2036 ft 156 kts 206°
2026-05-08 14:05 37.90353 23.93240 2546 ft 163 kts 206°
2026-05-08 14:05 37.89325 23.92574 3048 ft 169 kts 206°
2026-05-08 14:05 37.88266 23.91883 3555 ft 174 kts 208°
2026-05-08 14:05 37.87177 23.91160 4066 ft 179 kts 210°
2026-05-08 14:06 37.86062 23.90396 4540 ft 184 kts 211°
2026-05-08 14:06 37.84930 23.89612 5032 ft 187 kts 211°
2026-05-08 14:06 37.83792 23.88831 5534 ft 189 kts 213°
2026-05-08 14:06 37.82628 23.88029 6036 ft 192 kts 213°
2026-05-08 14:07 37.81447 23.87218 6543 ft 194 kts 214°
2026-05-08 14:07 37.80253 23.86390 7004 ft 197 kts 215°
2026-05-08 14:07 37.79045 23.85561 7474 ft 198 kts 215°
2026-05-08 14:07 37.77830 23.84728 7951 ft 199 kts 216°
2026-05-08 14:08 37.76489 23.84214 8450 ft 214 kts 184°
2026-05-08 14:08 37.75066 23.84945 8958 ft 232 kts 148°
2026-05-08 14:08 37.73901 23.86391 9462 ft 239 kts 135°
2026-05-08 14:08 37.72959 23.88137 9969 ft 243 kts 124°
2026-05-08 14:09 37.72169 23.90036 10439 ft 245 kts 120°
2026-05-08 14:09 37.71429 23.91972 10914 ft 245 kts 120°
2026-05-08 14:09 37.70685 23.93911 11404 ft 246 kts 120°
2026-05-08 14:09 37.69920 23.95850 11913 ft 248 kts 121°
2026-05-08 14:10 37.69123 23.97790 12408 ft 250 kts 122°
2026-05-08 14:10 37.68316 23.99735 12898 ft 250 kts 122°
2026-05-08 14:10 37.67506 24.01682 13421 ft 251 kts 122°
2026-05-08 14:10 37.66689 24.03636 13935 ft 252 kts 122°
2026-05-08 14:11 37.65873 24.05596 14395 ft 253 kts 122°
2026-05-08 14:11 37.65056 24.07557 14866 ft 252 kts 122°
2026-05-08 14:11 37.64241 24.09510 15340 ft 250 kts 122°
2026-05-08 14:11 37.63431 24.11444 15825 ft 249 kts 122°
2026-05-08 14:12 37.62638 24.13341 16313 ft 246 kts 122°
2026-05-08 14:12 37.61843 24.15241 16812 ft 244 kts 122°
2026-05-08 14:12 37.61027 24.17170 16999 ft 258 kts 123°
2026-05-08 14:12 37.60155 24.19158 17039 ft 262 kts 123°
2026-05-08 14:13 37.59255 24.21253 17059 ft 280 kts 122°
2026-05-08 14:13 37.58319 24.23491 17072 ft 296 kts 121°
2026-05-08 14:13 37.57338 24.25836 17072 ft 308 kts 121°
2026-05-08 14:13 37.56320 24.28267 17077 ft 318 kts 121°
2026-05-08 14:14 37.55300 24.30792 17072 ft 328 kts 114°
2026-05-08 14:14 37.54583 24.33546 17071 ft 334 kts 107°
2026-05-08 14:14 37.53965 24.36398 17065 ft 339 kts 107°
2026-05-08 14:14 37.53309 24.39273 17070 ft 343 kts 108°
2026-05-08 14:15 37.52580 24.42095 17069 ft 346 kts 110°
2026-05-08 14:15 37.51804 24.44978 17072 ft 348 kts 110°
2026-05-08 14:15 37.51023 24.47872 17073 ft 350 kts 110°
2026-05-08 14:15 37.50242 24.50774 17074 ft 351 kts 110°
2026-05-08 14:16 37.49473 24.53705 17079 ft 352 kts 110°
2026-05-08 14:16 37.48704 24.56650 17080 ft 353 kts 110°
2026-05-08 14:16 37.47933 24.59591 17083 ft 354 kts 110°
2026-05-08 14:16 37.47162 24.62535 17085 ft 354 kts 109°
2026-05-08 14:17 37.46388 24.65481 17088 ft 354 kts 109°
2026-05-08 14:17 37.45613 24.68428 17091 ft 355 kts 109°
2026-05-08 14:17 37.44839 24.71373 17096 ft 355 kts 110°
2026-05-08 14:17 37.44062 24.74318 17096 ft 355 kts 110°
2026-05-08 14:18 37.43285 24.77276 17096 ft 355 kts 109°
2026-05-08 14:18 37.42506 24.80221 17100 ft 355 kts 110°
2026-05-08 14:18 37.41728 24.83167 17098 ft 355 kts 109°
2026-05-08 14:18 37.40959 24.86074 17102 ft 355 kts 109°
2026-05-08 14:19 37.40179 24.89018 17106 ft 355 kts 109°
2026-05-08 14:19 37.39399 24.91959 17105 ft 355 kts 110°
2026-05-08 14:19 37.38614 24.94912 17104 ft 356 kts 110°
2026-05-08 14:19 37.37829 24.97863 17096 ft 356 kts 109°
2026-05-08 14:20 37.37047 25.00807 17096 ft 355 kts 109°
2026-05-08 14:20 37.36260 25.03743 17097 ft 355 kts 110°
2026-05-08 14:20 37.35482 25.06686 17100 ft 354 kts 109°
2026-05-08 14:20 37.34703 25.09619 17099 ft 354 kts 109°
2026-05-08 14:21 37.33916 25.12549 17100 ft 354 kts 109°
2026-05-08 14:21 37.33134 25.15477 17097 ft 354 kts 109°
2026-05-08 14:21 37.32465 25.17973 17098 ft 353 kts 109°
2026-05-08 14:21 37.31682 25.20895 17099 ft 353 kts 109°
2026-05-08 14:22 37.30902 25.23801 17100 ft 353 kts 109°
2026-05-08 14:22 37.30141 25.26644 17099 ft 353 kts 109°
2026-05-08 14:22 37.29355 25.29566 17101 ft 353 kts 109°
2026-05-08 14:22 37.28570 25.32487 17102 ft 353 kts 109°
2026-05-08 14:23 37.27782 25.35405 17103 ft 353 kts 110°
2026-05-08 14:23 37.26959 25.38298 17100 ft 352 kts 111°
2026-05-08 14:23 37.26064 25.41157 17101 ft 352 kts 113°
2026-05-08 14:23 37.25126 25.44003 17099 ft 352 kts 114°
2026-05-08 14:24 37.24189 25.46845 17101 ft 352 kts 114°
2026-05-08 14:24 37.23260 25.49681 17101 ft 352 kts 113°
2026-05-08 14:24 37.22334 25.52531 17101 ft 352 kts 114°
2026-05-08 14:24 37.21400 25.55377 17101 ft 352 kts 114°
2026-05-08 14:25 37.20468 25.58174 17098 ft 352 kts 114°
2026-05-08 14:25 37.19828 25.60085 17103 ft 352 kts 114°
2026-05-08 14:25 37.18878 25.62921 17102 ft 352 kts 114°
2026-05-08 14:25 37.17624 25.66677 17104 ft 352 kts 114°
2026-05-08 14:26 37.16679 25.69513 17100 ft 352 kts 114°
2026-05-08 14:26 37.15735 25.72343 17099 ft 352 kts 114°
2026-05-08 14:26 37.14788 25.75174 17100 ft 352 kts 114°
2026-05-08 14:26 37.14146 25.77091 17100 ft 353 kts 114°
2026-05-08 14:27 37.13194 25.79931 17096 ft 353 kts 114°
2026-05-08 14:27 37.12244 25.82765 17107 ft 353 kts 114°
2026-05-08 14:27 37.11294 25.85594 17103 ft 353 kts 114°
2026-05-08 14:27 37.10341 25.88432 17101 ft 353 kts 114°
2026-05-08 14:28 37.09388 25.91266 17103 ft 353 kts 114°
2026-05-08 14:28 37.08435 25.94097 17102 ft 353 kts 114°
2026-05-08 14:28 37.07480 25.96931 17103 ft 353 kts 114°
2026-05-08 14:28 37.06526 25.99759 17106 ft 353 kts 114°
2026-05-08 14:29 37.05582 26.02555 17104 ft 353 kts 114°
2026-05-08 14:29 37.04624 26.05391 17103 ft 353 kts 114°
2026-05-08 14:29 37.03665 26.08226 17103 ft 353 kts 114°
2026-05-08 14:29 37.02706 26.11061 17104 ft 354 kts 114°
2026-05-08 14:30 37.01747 26.13890 17102 ft 354 kts 114°
2026-05-08 14:30 37.00788 26.16717 17103 ft 354 kts 114°
2026-05-08 14:30 36.99826 26.19548 17103 ft 354 kts 114°
2026-05-08 14:30 36.98862 26.22386 17103 ft 354 kts 114°
2026-05-08 14:31 36.97901 26.25211 17103 ft 354 kts 114°
2026-05-08 14:31 36.96940 26.28044 17109 ft 354 kts 114°
2026-05-08 14:31 36.95983 26.30877 17108 ft 354 kts 114°
2026-05-08 14:32 36.94041 26.36595 16443 ft 356 kts 114°
2026-05-08 14:32 36.93076 26.39423 16005 ft 351 kts 114°
2026-05-08 14:32 36.92132 26.42213 15574 ft 346 kts 114°
2026-05-08 14:32 36.91204 26.44965 15156 ft 342 kts 114°
2026-05-08 14:33 36.90280 26.47688 14738 ft 339 kts 114°
2026-05-08 14:33 36.89358 26.50392 14326 ft 336 kts 114°
2026-05-08 14:33 36.88444 26.53064 13931 ft 333 kts 114°
2026-05-08 14:33 36.87537 26.55712 13492 ft 331 kts 114°
2026-05-08 14:34 36.86638 26.58341 13063 ft 328 kts 114°
2026-05-08 14:34 36.85740 26.60958 12627 ft 326 kts 114°
2026-05-08 14:34 36.84852 26.63542 12208 ft 324 kts 114°
2026-05-08 14:34 36.83966 26.66118 11801 ft 321 kts 114°
2026-05-08 14:35 36.83066 26.68652 11401 ft 316 kts 120°
2026-05-08 14:35 36.81804 26.70834 11003 ft 312 kts 134°
2026-05-08 14:35 36.80311 26.72781 10602 ft 310 kts 138°
2026-05-08 14:35 36.78794 26.74687 10213 ft 309 kts 137°
2026-05-08 14:36 36.77321 26.76627 9830 ft 307 kts 135°
2026-05-08 14:36 36.75898 26.78603 9423 ft 305 kts 135°
2026-05-08 14:36 36.74512 26.80528 9040 ft 303 kts 135°
2026-05-08 14:36 36.73104 26.82464 8651 ft 300 kts 135°
2026-05-08 14:37 36.71690 26.84410 8285 ft 297 kts 135°
2026-05-08 14:37 36.70348 26.86248 8207 ft 284 kts 135°
2026-05-08 14:37 36.69089 26.88064 8170 ft 273 kts 127°
2026-05-08 14:37 36.68225 26.90128 8154 ft 264 kts 116°
2026-05-08 14:38 36.67502 26.92191 8097 ft 258 kts 115°
2026-05-08 14:38 36.66759 26.94287 7653 ft 270 kts 116°
2026-05-08 14:38 36.65941 26.96430 7218 ft 277 kts 118°
2026-05-08 14:38 36.65072 26.98587 6793 ft 281 kts 119°
2026-05-08 14:39 36.64196 27.00769 6443 ft 280 kts 118°
2026-05-08 14:39 36.63338 27.02908 6289 ft 272 kts 118°
2026-05-08 14:39 36.62508 27.04977 6212 ft 263 kts 118°
2026-05-08 14:39 36.61704 27.06977 6175 ft 254 kts 118°
2026-05-08 14:40 36.60923 27.08916 6158 ft 247 kts 118°
2026-05-08 14:40 36.60233 27.10832 6136 ft 240 kts 105°
2026-05-08 14:40 36.60309 27.12913 5819 ft 252 kts 70°
2026-05-08 14:40 36.61338 27.14697 5415 ft 263 kts 38°
2026-05-08 14:41 36.63017 27.15597 4932 ft 269 kts
2026-05-08 14:41 36.64805 27.15314 4428 ft 248 kts 335°
2026-05-08 14:41 36.66150 27.14233 3938 ft 219 kts 323°
2026-05-08 14:41 36.67569 27.13688 3474 ft 220 kts
2026-05-08 14:42 36.69039 27.14402 3046 ft 237 kts 37°
2026-05-08 14:42 36.70045 27.15956 2883 ft 229 kts 56°
2026-05-08 14:42 36.71282 27.16874 3176 ft 198 kts 352°
2026-05-08 14:42 36.72287 27.15854 2286 ft 201 kts 301°
2026-05-08 14:43 36.72698 27.14447 2410 ft 143 kts 291°
2026-05-08 14:43 36.73372 27.13838 2412 ft 116 kts 356°
2026-05-08 14:43 36.73887 27.13690 2370 ft 117 kts 334°
2026-05-08 14:43 36.74661 27.13077 2048 ft 143 kts 323°
2026-05-08 14:44 36.74825 27.12933 1975 ft 143 kts 323°
2026-05-08 14:44 36.74991 27.12790 1972 ft 137 kts 324°
2026-05-08 14:45 36.75720 27.12141 1859 ft 128 kts 322°
2026-05-08 14:45 36.76407 27.11534 1661 ft 130 kts 327°
2026-05-08 14:45 36.77222 27.10873 1188 ft 141 kts 330°
2026-05-08 14:45 36.78028 27.10232 793 ft 134 kts 326°
2026-05-08 14:46 36.78798 27.09624 469 ft 124 kts 327°
2026-05-08 14:46 36.79392 27.09157 438 ft 67 kts 331°
2026-05-08 14:46 36.80142 27.08914 441 ft 3 kts 58°
2026-05-08 14:46 36.80128 27.08886 436 ft 4 kts 58°
2026-05-08 14:47 36.80110 27.08850 441 ft 5 kts 58°
2026-05-08 14:47 36.80093 27.08817 435 ft 3 kts 58°
2026-05-08 14:47 36.80086 27.08803 433 ft 1 kts 58°
2026-05-08 14:47 36.80084 27.08799 432 ft 0 kts 58°
2026-05-08 14:54 36.79970 27.09052 430 ft 0 kts 57°
2026-05-08 14:54 36.79969 27.09049 431 ft 0 kts 57°